EA5AFP-10 Weather Reports


Display with metric or nautical units.
time (UTC)temp
F
wind
direction
speed
MPH
gust
MPH
rain 1hr
in
rain 24hr
in
rain mn
in
humidity
%
barometer
mb
20260509034532 59 292 3.0 3.0 0.00 0.00 0.00 9 1007.2
20260509034059 59 292 1.0 2.0 0.00 0.00 0.00 9 1007.4
20260509033540 60 292 2.0 3.0 0.00 0.00 0.00 9 1007.3
20260509033123 59 270 2.0 2.0 0.00 0.00 0.00 9 1007.3
20260509032711 59 270 2.0 3.0 0.00 0.00 0.00 9 1007.4
20260509032708 59 270 2.0 3.0 0.00 0.00 0.00 9 1007.4
20260509032609 59 292 2.0 2.0 0.00 0.00 0.00 9 1007.4
20260509032452 59 292 2.0 2.0 0.00 0.00 0.00 9 1007.3
20260509032018 60 292 2.0 3.0 0.00 0.00 0.00 9 1007.3
20260509031556 59 292 1.0 1.0 0.00 0.00 0.00 9 1007.4
20260509031114 59 292 2.0 3.0 0.00 0.00 0.00 9 1007.4
20260509030626 60 225 1.0 2.0 0.00 0.00 0.00 9 1007.3
20260509030200 59 292 1.0 2.0 0.00 0.00 0.00 9 1007.4
20260509025710 59 0 0.0 1.0 0.00 0.00 0.00 9 1007.3
20260509025707 59 0 0.0 1.0 0.00 0.00 0.00 9 1007.3
20260509025434 59 292 0.0 1.0 0.00 0.00 0.00 9 1007.4
20260509025029 59 292 1.0 2.0 0.00 0.00 0.00 9 1007.5
20260509024535 59 292 2.0 3.0 0.00 0.00 0.00 9 1007.5
20260509024046 59 270 2.0 2.0 0.00 0.00 0.00 9 1007.7
20260509023618 59 292 1.0 2.0 0.00 0.00 0.00 9 1007.6
20260509023126 59 270 1.0 2.0 0.00 0.00 0.00 9 1007.6
20260509022635 59 292 1.0 1.0 0.00 0.00 0.00 9 1007.5
20260509022631 59 292 1.0 1.0 0.00 0.00 0.00 9 1007.5
20260509022342 59 292 1.0 2.0 0.00 0.00 0.00 9 1007.5
20260509022138 59 292 1.0 2.0 0.00 0.00 0.00 9 1007.6
20260509021858 59 292 1.0 2.0 0.00 0.00 0.00 9 1007.6
20260509021408 59 292 1.0 2.0 0.00 0.00 0.00 9 1007.6
20260509021243 59 292 1.0 2.0 0.00 0.00 0.00 9 1007.6
20260509020950 59 292 0.0 1.0 0.00 0.00 0.00 9 1007.8
20260509020450 59 0 0.0 0.0 0.00 0.00 0.00 9 1007.7
20260509020417 59 0 0.0 0.0 0.00 0.00 0.00 9 1007.8
20260509020000 59 292 0.0 1.0 0.00 0.00 0.00 9 1007.7
20260509015553 59 292 2.0 2.0 0.00 0.00 0.00 9 1007.9
20260509015550 59 292 2.0 2.0 0.00 0.00 0.00 9 1007.9
20260509015434 59 292 2.0 2.0 0.00 0.00 0.00 9 1007.9
20260509015337 59 315 0.0 2.0 0.00 0.00 0.00 9 1007.8
20260509014957 59 292 0.0 1.0 0.00 0.00 0.00 9 1007.9
20260509014513 59 292 0.0 1.0 0.00 0.00 0.00 9 1008.0
20260509014452 59 292 0.0 1.0 0.00 0.00 0.00 9 1008.1
20260509014049 59 315 1.0 2.0 0.00 0.00 0.00 9 1007.9
20260509013619 59 292 2.0 2.0 0.00 0.00 0.00 9 1008.0
20260509013602 59 292 1.0 2.0 0.00 0.00 0.00 9 1008.1
20260509013134 59 292 1.0 2.0 0.00 0.00 0.00 9 1008.2
20260509012712 59 292 1.0 2.0 0.00 0.00 0.00 9 1008.3
20260509012709 59 292 1.0 2.0 0.00 0.00 0.00 9 1008.3
20260509012407 59 270 1.0 2.0 0.00 0.00 0.00 9 1008.4
20260509012256 59 292 2.0 2.0 0.00 0.00 0.00 9 1008.3
20260509012006 59 292 1.0 1.0 0.00 0.00 0.00 9 1008.3
20260509011550 59 315 2.0 2.0 0.00 0.00 0.00 9 1008.5
20260509011056 59 270 3.0 3.0 0.00 0.00 0.00 9 1008.4
20260509010606 59 292 1.0 1.0 0.00 0.00 0.00 9 1008.5
20260509010535 59 292 1.0 1.0 0.00 0.00 0.00 9 1008.5
20260509010118 59 292 0.0 1.0 0.00 0.00 0.00 9 1008.5
20260509005708 59 315 2.0 2.0 0.00 0.00 0.00 9 1008.6
20260509005447 59 292 2.0 2.0 0.00 0.00 0.00 9 1008.7
20260509005005 59 270 2.0 2.0 0.00 0.00 0.00 9 1008.7
20260509004700 59 270 1.0 2.0 0.00 0.00 0.00 9 1008.6
20260509004516 59 270 1.0 2.0 0.00 0.00 0.00 9 1008.8
20260509004045 59 292 2.0 2.0 0.00 0.00 0.00 9 1008.8
20260509003702 59 270 2.0 2.0 0.00 0.00 0.00 9 1008.8
20260509003627 59 270 2.0 2.0 0.00 0.00 0.00 9 1008.8
20260509003202 59 270 2.0 2.0 0.00 0.00 0.00 9 1008.9
20260509002711 59 270 2.0 2.0 0.00 0.00 0.00 9 1008.8
20260509002707 59 270 2.0 2.0 0.00 0.00 0.00 9 1008.8
20260509002247 59 270 2.0 2.0 0.00 0.00 0.00 9 1008.9
20260509002141 59 292 1.0 2.0 0.00 0.00 0.00 9 1008.9
20260509001816 59 292 2.0 2.0 0.00 0.00 0.00 9 1009.0
20260509001342 59 270 1.0 2.0 0.00 0.00 0.00 9 1009.0
20260509001246 59 270 1.0 2.0 0.00 0.00 0.00 9 1009.0
20260509000922 59 270 1.0 2.0 0.00 0.00 0.00 9 1009.2
20260509000419 59 292 0.0 1.0 0.00 0.00 0.00 9 1009.2
20260509000002 59 292 0.0 1.0 0.00 0.00 0.00 9 1009.0
20260508235551 59 292 1.0 1.0 0.00 0.00 0.00 9 1009.0
20260508235547 59 292 1.0 1.0 0.00 0.00 0.00 9 1009.0
20260508235050 59 270 1.0 2.0 0.00 0.00 0.00 9 1009.1
20260508234754 59 270 2.0 2.0 0.00 0.00 0.00 9 1009.1
20260508234626 59 270 2.0 2.0 0.00 0.00 0.00 9 1009.4
20260508234139 59 270 3.0 3.0 0.00 0.00 0.00 9 1009.4
20260508233756 59 270 3.0 3.0 0.00 0.00 0.00 9 1009.3
20260508233721 59 270 3.0 3.0 0.00 0.00 0.00 9 1009.3
20260508233256 59 270 2.0 3.0 0.00 0.00 0.00 9 1009.1
20260508232804 59 292 1.0 2.0 0.00 0.00 0.00 9 1009.0
20260508232801 59 292 1.0 2.0 0.00 0.00 0.00 9 1009.0
20260508232646 59 292 1.0 2.0 0.00 0.00 0.00 9 1009.0
20260508232407 59 292 2.0 2.0 0.00 0.00 0.00 9 1009.0
20260508232219 59 292 2.0 3.0 0.00 0.00 0.00 9 1009.2
20260508231751 59 292 0.0 1.0 0.00 0.00 0.00 9 1009.2
20260508231445 59 292 0.0 1.0 0.00 0.00 0.00 9 1009.2
20260508231340 59 292 0.0 1.0 0.00 0.00 0.00 9 1009.4
20260508230913 59 0 0.0 1.0 0.00 0.00 0.00 9 1009.4
20260508230547 59 292 1.0 1.0 0.00 0.00 0.00 9 1009.5
20260508230501 59 292 1.0 2.0 0.00 0.00 0.00 9 1009.5
20260508230053 59 292 0.0 1.0 0.00 0.00 0.00 9 1009.7
20260508225601 59 292 1.0 2.0 0.00 0.00 0.00 9 1009.8
20260508225135 59 292 1.0 2.0 0.00 0.00 0.00 9 1009.7
20260508224729 59 292 1.0 2.0 0.00 0.00 0.00 9 1009.7
20260508224315 59 270 0.0 1.0 0.00 0.00 0.00 9 1009.6
20260508223817 59 270 0.0 1.0 0.00 0.00 0.00 9 1009.7
20260508223347 59 270 1.0 2.0 0.00 0.00 0.00 9 1009.7
20260508222949 59 270 1.0 2.0 0.00 0.00 0.00 9 1009.6
20260508222946 59 270 1.0 2.0 0.00 0.00 0.00 9 1009.6
20260508222836 59 270 1.0 2.0 0.00 0.00 0.00 9 1009.6
20260508222406 59 292 1.0 2.0 0.00 0.00 0.00 9 1009.6
20260508221914 59 270 3.0 3.0 0.00 0.00 0.00 9 1009.7
20260508221456 59 112 1.0 2.0 0.00 0.00 0.00 9 1009.5
20260508220956 59 112 0.0 1.0 0.00 0.00 0.00 9 1009.6
20260508220924 59 112 1.0 1.0 0.00 0.00 0.00 9 1009.6
20260508220506 59 112 1.0 2.0 0.00 0.00 0.00 9 1009.6
20260508220059 59 112 0.0 1.0 0.00 0.00 0.00 9 1009.6
20260508220055 59 112 0.0 1.0 0.00 0.00 0.00 9 1009.6
20260508215701 60 112 0.0 1.0 0.00 0.00 0.00 9 1009.7
20260508215259 60 90 0.0 2.0 0.00 0.00 0.00 9 1009.6
20260508215218 60 90 0.0 2.0 0.00 0.00 0.00 9 1009.6
20260508214823 60 112 0.0 1.0 0.00 0.00 0.00 9 1009.6
20260508214418 60 112 0.0 2.0 0.00 0.00 0.00 9 1009.7
20260508213940 61 135 1.0 2.0 0.00 0.00 0.00 9 1009.8
20260508213502 61 0 0.0 2.0 0.00 0.00 0.00 9 1009.8
20260508213457 60 112 2.0 3.0 0.00 0.00 0.00 9 1009.7
20260508213038 60 112 3.0 3.0 0.00 0.00 0.00 9 1009.7
20260508212628 60 112 2.0 3.0 0.00 0.00 0.00 9 1009.8
20260508212625 60 112 2.0 3.0 0.00 0.00 0.00 9 1009.8
20260508212507 60 112 2.0 3.0 0.00 0.00 0.00 9 1009.8
20260508212420 60 112 2.0 2.0 0.00 0.00 0.00 9 1009.8
20260508211957 60 112 1.0 2.0 0.00 0.00 0.00 9 1009.7
20260508211543 61 112 1.0 2.0 0.00 0.00 0.00 9 1009.6
20260508211522 61 90 1.0 2.0 0.00 0.00 0.00 9 1009.6
20260508211037 61 112 3.0 3.0 0.00 0.00 0.00 9 1009.7
20260508210655 61 112 3.0 3.0 0.00 0.00 0.00 9 1009.7
20260508210620 61 112 2.0 3.0 0.00 0.00 0.00 9 1009.7
20260508210155 61 112 3.0 4.0 0.00 0.00 0.00 9 1009.7
20260508205700 61 112 3.0 3.0 0.00 0.00 0.00 9 1009.6
20260508205521 61 112 3.0 3.0 0.00 0.00 0.00 9 1009.6
20260508205431 61 90 2.0 3.0 0.00 0.00 0.00 9 1009.4
20260508204955 61 0 0.0 0.0 0.00 0.00 0.00 9 1009.7
20260508204534 61 67 1.0 2.0 0.00 0.00 0.00 9 1009.6
20260508204050 61 90 2.0 3.0 0.00 0.00 0.00 9 1009.6
20260508203634 62 90 0.0 1.0 0.00 0.00 0.00 9 1009.7
20260508203208 62 112 1.0 2.0 0.00 0.00 0.00 9 1009.6
20260508202722 62 112 2.0 2.0 0.00 0.00 0.00 9 1009.5
20260508202718 62 112 2.0 2.0 0.00 0.00 0.00 9 1009.5
20260508202406 62 112 2.0 3.0 0.00 0.00 0.00 8 1009.4
20260508202323 62 112 2.0 3.0 0.00 0.00 0.00 8 1009.4
20260508201925 62 112 2.0 3.0 0.00 0.00 0.00 9 1009.4
20260508201438 62 112 3.0 3.0 0.00 0.00 0.00 9 1009.3
20260508201036 62 112 3.0 3.0 0.00 0.00 0.00 9 1009.1
20260508200548 62 112 3.0 3.0 0.00 0.00 0.00 9 1009.2
20260508200121 62 112 2.0 3.0 0.00 0.00 0.00 9 1009.0
20260508195700 62 112 3.0 4.0 0.00 0.00 0.00 8 1008.8
20260508195656 62 112 3.0 4.0 0.00 0.00 0.00 8 1008.8
20260508195429 62 112 3.0 4.0 0.00 0.00 0.00 8 1008.9
20260508194950 62 112 3.0 3.0 0.00 0.00 0.00 9 1008.8
20260508194532 62 112 3.0 3.0 0.00 0.00 0.00 9 1008.9
20260508194048 62 90 3.0 4.0 0.00 0.00 0.00 8 1008.8
20260508193707 62 90 2.0 2.0 0.00 0.00 0.00 8 1008.8
20260508193631 62 112 2.0 3.0 0.00 0.00 0.00 8 1008.9
20260508193206 62 112 3.0 4.0 0.00 0.00 0.00 8 1009.0
20260508192711 62 112 3.0 4.0 0.00 0.00 0.00 8 1008.7
20260508192417 62 112 3.0 6.0 0.00 0.00 0.00 8 1008.8
20260508191953 62 112 3.0 6.0 0.00 0.00 0.00 8 1008.9
20260508191650 62 112 3.0 4.0 0.00 0.00 0.00 8 1008.8
20260508191502 63 112 3.0 6.0 0.00 0.00 0.00 8 1008.9
20260508191036 63 90 2.0 3.0 0.00 0.00 0.00 8 1008.7
20260508190651 63 112 4.0 6.0 0.00 0.00 0.00 8 1008.8
20260508190617 63 112 4.0 6.0 0.00 0.00 0.00 8 1008.8
20260508190152 63 112 3.0 3.0 0.00 0.00 0.00 8 1008.8
20260508185701 63 90 3.0 6.0 0.00 0.00 0.00 8 1008.5
20260508185657 63 90 3.0 6.0 0.00 0.00 0.00 8 1008.5
20260508185403 63 112 3.0 6.0 0.00 0.00 0.00 8 1008.6
20260508184958 64 90 6.0 6.0 0.00 0.00 0.00 8 1008.6
20260508184616 64 90 5.0 6.0 0.00 0.00 0.00 8 1008.5
20260508184555 64 90 4.0 6.0 0.00 0.00 0.00 8 1008.6
20260508184116 64 112 4.0 6.0 0.00 0.00 0.00 8 1008.5
20260508183701 64 112 6.0 9.0 0.00 0.00 0.00 8 1008.2
20260508183629 64 112 6.0 9.0 0.00 0.00 0.00 8 1008.2
20260508183202 64 112 6.0 9.0 0.00 0.00 0.00 8 1008.3
20260508182712 64 112 6.0 8.0 0.00 0.00 0.00 8 1008.3
20260508182709 64 112 6.0 8.0 0.00 0.00 0.00 8 1008.3
20260508182323 64 112 6.0 8.0 0.00 0.00 0.00 8 1008.3
20260508182230 64 112 7.0 9.0 0.00 0.00 0.00 8 1008.3
20260508181836 65 67 3.0 6.0 0.00 0.00 0.00 8 1008.3
20260508181353 65 112 6.0 10.0 0.00 0.00 0.00 8 1008.2
20260508180932 65 112 5.0 6.0 0.00 0.00 0.00 8 1008.2
20260508180520 65 90 5.0 8.0 0.00 0.00 0.00 8 1008.0
20260508180508 65 112 4.0 6.0 0.00 0.00 0.00 8 1008.0
20260508180107 65 67 6.0 9.0 0.00 0.00 0.00 8 1007.9
20260508175700 65 67 6.0 10.0 0.00 0.00 0.00 8 1008.1
20260508175656 65 67 6.0 10.0 0.00 0.00 0.00 8 1008.1
20260508175521 65 67 6.0 10.0 0.00 0.00 0.00 8 1008.1
20260508175427 65 90 7.0 9.0 0.00 0.00 0.00 8 1008.1
20260508174931 65 112 6.0 11.0 0.00 0.00 0.00 8 1008.1
20260508174600 66 90 7.0 9.0 0.00 0.00 0.00 8 1008.2
20260508174457 66 90 7.0 9.0 0.00 0.00 0.00 8 1008.1
20260508174028 66 90 7.0 9.0 0.00 0.00 0.00 8 1008.1
20260508173700 65 112 7.0 11.0 0.00 0.00 0.00 8 1008.2
20260508173617 66 90 7.0 10.0 0.00 0.00 0.00 8 1008.2
20260508173208 66 67 8.0 10.0 0.00 0.00 0.00 8 1008.2
20260508172720 66 90 7.0 10.0 0.00 0.00 0.00 8 1008.1
20260508172717 66 90 7.0 10.0 0.00 0.00 0.00 8 1008.1
20260508172429 66 67 6.0 9.0 0.00 0.00 0.00 8 1008.1
20260508171956 66 112 8.0 11.0 0.00 0.00 0.00 7 1008.0
20260508171648 66 112 7.0 10.0 0.00 0.00 0.00 8 1008.0
20260508171506 67 90 6.0 10.0 0.00 0.00 0.00 7 1008.0
20260508171034 66 112 6.0 8.0 0.00 0.00 0.00 7 1008.1
20260508170651 66 90 9.0 12.0 0.00 0.00 0.00 7 1007.9
20260508170616 66 90 9.0 12.0 0.00 0.00 0.00 7 1007.9
20260508170151 66 90 7.0 10.0 0.00 0.00 0.00 7 1008.1
20260508165656 67 135 6.0 8.0 0.00 0.00 0.00 8 1008.0
20260508165404 66 90 6.0 10.0 0.00 0.00 0.00 8 1008.1
20260508164914 66 112 9.0 11.0 0.00 0.00 0.00 8 1007.9
20260508164547 67 90 5.0 8.0 0.00 0.00 0.00 8 1007.9
20260508164503 67 90 5.0 8.0 0.00 0.00 0.00 8 1007.9
20260508164029 66 67 9.0 11.0 0.00 0.00 0.00 8 1008.0
20260508163553 67 90 7.0 11.0 0.00 0.00 0.00 8 1008.0
20260508163128 67 90 6.0 8.0 0.00 0.00 0.00 8 1008.1
20260508162718 67 112 9.0 13.0 0.00 0.00 0.00 7 1008.1
20260508162714 67 112 9.0 13.0 0.00 0.00 0.00 7 1008.1
20260508162351 67 112 6.0 9.0 0.00 0.00 0.00 7 1008.2
20260508161949 67 90 7.0 11.0 0.00 0.00 0.00 7 1008.0
20260508161524 67 90 7.0 9.0 0.00 0.00 0.00 7 1008.0
20260508161105 67 90 4.0 6.0 0.00 0.00 0.00 7 1008.1
20260508160604 67 67 3.0 4.0 0.00 0.00 0.00 7 1008.0
20260508160533 67 67 3.0 4.0 0.00 0.00 0.00 7 1008.0
20260508160115 66 112 9.0 10.0 0.00 0.00 0.00 7 1008.0
20260508155704 67 67 6.0 10.0 0.00 0.00 0.00 7 1007.8
20260508155700 67 67 6.0 10.0 0.00 0.00 0.00 7 1007.8
20260508155518 67 67 6.0 10.0 0.00 0.00 0.00 7 1007.8
20260508155411 66 90 6.0 9.0 0.00 0.00 0.00 7 1007.8
20260508155006 67 112 7.0 10.0 0.00 0.00 0.00 7 1007.8
20260508154601 67 90 7.0 9.0 0.00 0.00 0.00 7 1007.9
20260508154124 67 90 9.0 12.0 0.00 0.00 0.00 7 1007.8
20260508153702 68 112 5.0 10.0 0.00 0.00 0.00 7 1007.7
20260508153635 68 67 6.0 9.0 0.00 0.00 0.00 7 1007.7
20260508153208 67 90 10.0 13.0 0.00 0.00 0.00 7 1007.8
20260508152720 67 112 9.0 12.0 0.00 0.00 0.00 7 1007.5
20260508152717 67 112 9.0 12.0 0.00 0.00 0.00 7 1007.5
20260508152334 68 90 9.0 13.0 0.00 0.00 0.00 7 1007.8
20260508152253 68 90 8.0 9.0 0.00 0.00 0.00 7 1007.5
20260508151857 67 112 6.0 8.0 0.00 0.00 0.00 7 1007.7
20260508151453 68 112 6.0 10.0 0.00 0.00 0.00 7 1007.6
20260508151358 68 90 8.0 10.0 0.00 0.00 0.00 7 1007.4
20260508151034 68 112 8.0 11.0 0.00 0.00 0.00 7 1007.6
20260508150531 68 112 6.0 9.0 0.00 0.00 0.00 7 1007.7
20260508150114 68 67 5.0 8.0 0.00 0.00 0.00 7 1007.6
20260508145701 68 90 5.0 8.0 0.00 0.00 0.00 7 1007.8
20260508145409 68 135 6.0 9.0 0.00 0.00 0.00 7 1007.7
20260508145005 68 112 4.0 9.0 0.00 0.00 0.00 7 1007.8
20260508144601 68 67 6.0 9.0 0.00 0.00 0.00 7 1007.7
20260508144122 68 90 7.0 10.0 0.00 0.00 0.00 7 1007.9
20260508143635 68 90 9.0 11.0 0.00 0.00 0.00 7 1008.1
20260508143207 69 112 6.0 8.0 0.00 0.00 0.00 7 1008.2
20260508142719 67 112 5.0 6.0 0.00 0.00 0.00 7 1008.4
20260508142715 67 112 5.0 6.0 0.00 0.00 0.00 7 1008.4
20260508142439 67 135 6.0 8.0 0.00 0.00 0.00 7 1008.5
20260508142339 67 90 7.0 10.0 0.00 0.00 0.00 7 1008.5
20260508141850 66 112 6.0 8.0 0.00 0.00 0.00 7 1008.6
20260508141524 66 112 6.0 8.0 0.00 0.00 0.00 7 1008.6
20260508141439 66 112 5.0 8.0 0.00 0.00 0.00 7 1008.6
20260508141005 65 112 6.0 8.0 0.00 0.00 0.00 7 1008.7
20260508140524 66 112 5.0 6.0 0.00 0.00 0.00 7 1008.6
20260508140104 65 90 7.0 9.0 0.00 0.00 0.00 7 1008.7
20260508135654 65 90 5.0 6.0 0.00 0.00 0.00 8 1008.7
20260508135650 65 90 5.0 6.0 0.00 0.00 0.00 8 1008.7
20260508135456 65 90 4.0 6.0 0.00 0.00 0.00 8 1008.8
20260508135338 65 112 6.0 9.0 0.00 0.00 0.00 8 1008.9
20260508134936 65 90 6.0 9.0 0.00 0.00 0.00 8 1008.9
20260508134516 65 112 7.0 9.0 0.00 0.00 0.00 8 1009.0
20260508134448 65 112 4.0 9.0 0.00 0.00 0.00 8 1008.9
20260508134048 65 112 5.0 8.0 0.00 0.00 0.00 8 1008.9
20260508133527 65 112 8.0 13.0 0.00 0.00 0.00 8 1009.2
20260508133121 64 67 8.0 12.0 0.00 0.00 0.00 8 1009.1
20260508132720 64 112 9.0 11.0 0.00 0.00 0.00 8 1009.0
20260508132357 64 112 5.0 9.0 0.00 0.00 0.00 8 1009.1
20260508131946 64 112 9.0 12.0 0.00 0.00 0.00 8 1009.2
20260508131522 64 112 9.0 13.0 0.00 0.00 0.00 8 1009.3
20260508131049 65 112 7.0 10.0 0.00 0.00 0.00 8 1009.4
20260508130607 67 112 6.0 11.0 0.00 0.00 0.00 7 1009.2
20260508130532 67 112 6.0 11.0 0.00 0.00 0.00 7 1009.2
20260508130114 68 90 6.0 9.0 0.00 0.00 0.00 7 1009.2
20260508125658 68 112 3.0 6.0 0.00 0.00 0.00 7 1009.3
20260508125519 68 112 3.0 6.0 0.00 0.00 0.00 7 1009.3
20260508125453 68 112 3.0 3.0 0.00 0.00 0.00 7 1009.3
20260508125041 67 90 2.0 2.0 0.00 0.00 0.00 7 1009.3
20260508124607 67 45 3.0 6.0 0.00 0.00 0.00 7 1009.3
20260508124556 68 67 3.0 4.0 0.00 0.00 0.00 7 1009.2
20260508124123 67 292 2.0 3.0 0.00 0.00 0.00 7 1009.2
20260508123633 65 315 3.0 3.0 0.00 0.00 0.00 7 1009.4
20260508123203 65 292 3.0 4.0 0.00 0.00 0.00 7 1009.4
20260508122713 65 270 2.0 2.0 0.00 0.00 0.00 7 1009.4
20260508122430 65 270 2.0 3.0 0.00 0.00 0.00 7 1009.5
20260508121953 64 270 3.0 4.0 0.00 0.00 0.00 7 1009.4
20260508121659 64 292 3.0 6.0 0.00 0.00 0.00 8 1009.6
20260508121510 64 292 4.0 6.0 0.00 0.00 0.00 8 1009.5
20260508121045 64 292 5.0 6.0 0.00 0.00 0.00 8 1009.5
20260508120701 64 270 6.0 8.0 0.00 0.00 0.00 8 1009.7
20260508120627 64 270 6.0 8.0 0.00 0.00 0.00 8 1009.7
20260508120202 65 292 6.0 8.0 0.00 0.00 0.00 7 1009.6
20260508115707 65 270 3.0 6.0 0.00 0.00 0.00 7 1009.6
20260508115407 65 270 2.0 4.0 0.00 0.00 0.00 7 1009.8
20260508114947 65 45 2.0 3.0 0.00 0.00 0.00 7 1009.7
20260508114537 66 270 3.0 4.0 0.00 0.00 0.00 7 1009.9
20260508114503 66 0 0.0 0.0 0.00 0.00 0.00 7 1009.6
20260508114016 65 315 1.0 2.0 0.00 0.00 0.00 7 1009.7
20260508113655 64 337 3.0 3.0 0.00 0.00 0.00 8 1009.7
20260508113517 65 292 2.0 4.0 0.00 0.00 0.00 8 1009.8
20260508113057 65 0 0.0 1.0 0.00 0.00 0.00 8 1009.7
20260508112825 64 45 0.0 2.0 0.00 0.00 0.00 8 1009.8
20260508112646 0 0 0.0 0.0 0.00 0.00 0.00 100
20260508112221 0 0 0.0 0.0 0.00 0.00 0.00 100
20260508111735 0 0 0.0 0.0 0.00 0.00 0.00 100
20260508111325 0 0 0.0 0.0 0.00 0.00 0.00 100
20260508111110 0 0 0.0 0.0 0.00 0.00 0.00 100
20260508110852 0 0 0.0 0.0 0.00 0.00 0.00 100
20260508110413 63 0 0.0 1.0 0.00 0.00 0.00 8 1009.7
20260508110135 63 0 0.0 1.0 0.00 0.00 0.00 8 1009.6
20260508110011 63 0 0.0 1.0 0.00 0.00 0.00 8 1009.3
20260508105526 63 0 0.0 1.0 0.00 0.00 0.00 8 1009.4
20260508105222 63 0 0.0 1.0 0.00 0.00 0.00 8 1009.5
20260508105032 62 315 2.0 2.0 0.00 0.00 0.00 8 1009.6
20260508104547 63 67 1.0 2.0 0.00 0.00 0.00 8 1009.2
20260508104136 63 0 0.0 1.0 0.00 0.00 0.00 8 1009.5
20260508103713 63 0 0.0 1.0 0.00 0.00 0.00 8 1009.5
20260508103340 63 0 0.0 1.0 0.00 0.00 0.00 8 1009.6
20260508103231 63 0 0.0 1.0 0.00 0.00 0.00 8 1009.7
20260508102747 63 67 1.0 2.0 0.00 0.00 0.00 8 1009.8
20260508102442 63 67 0.0 1.0 0.00 0.00 0.00 8 1009.9
20260508102322 63 45 0.0 1.0 0.00 0.00 0.00 8 1009.7
20260508101851 63 45 0.0 1.0 0.00 0.00 0.00 8 1009.9
20260508101524 0 0 0.0 0.0 0.00 0.00 0.00 100
20260508101445 0 0 0.0 0.0 0.00 0.00 0.00 100
20260508101005 0 0 0.0 0.0 0.00 0.00 0.00 100
20260508100525 0 0 0.0 0.0 0.00 0.00 0.00 100
20260508100106 0 0 0.0 0.0 0.00 0.00 0.00 100
20260508095658 62 270 2.0 2.0 0.00 0.00 0.00 8 1010.0
20260508095654 62 270 2.0 2.0 0.00 0.00 0.00 8 1010.0
20260508095522 62 270 2.0 2.0 0.00 0.00 0.00 8 1010.0
20260508095411 62 270 2.0 2.0 0.00 0.00 0.00 8 1010.0
20260508095008 62 270 2.0 2.0 0.00 0.00 0.00 8 1010.0
20260508094601 62 292 2.0 3.0 0.00 0.00 0.00 8 1010.1
20260508094125 62 292 2.0 3.0 0.00 0.00 0.00 8 1009.8
20260508093638 63 270 0.0 1.0 0.00 0.00 0.00 8 1009.6
20260508093208 62 315 3.0 3.0 0.00 0.00 0.00 8 1009.6
20260508092718 62 315 1.0 2.0 0.00 0.00 0.00 8 1009.4
20260508092527 62 337 2.0 2.0 0.00 0.00 0.00 8 1009.4
20260508092447 62 337 2.0 2.0 0.00 0.00 0.00 8 1009.4
20260508092012 62 0 0.0 1.0 0.00 0.00 0.00 8 1009.4
20260508091527 62 0 0.0 1.0 0.00 0.00 0.00 8 1009.7
20260508091105 63 292 2.0 2.0 0.00 0.00 0.00 8 1009.6
20260508090617 63 337 0.0 1.0 0.00 0.00 0.00 8 1009.6
20260508090150 62 67 0.0 2.0 0.00 0.00 0.00 8 1009.8
20260508085701 62 22 2.0 3.0 0.00 0.00 0.00 8 1009.7
20260508085657 62 22 2.0 3.0 0.00 0.00 0.00 8 1009.7
20260508085252 62 0 2.0 3.0 0.00 0.00 0.00 8 1009.9
20260508084841 62 315 3.0 4.0 0.00 0.00 0.00 8 1009.9
20260508084433 61 337 2.0 3.0 0.00 0.00 0.00 8 1009.9
20260508084031 61 315 1.0 3.0 0.00 0.00 0.00 8 1009.9
20260508083617 61 337 3.0 3.0 0.00 0.00 0.00 8 1009.9
20260508083127 61 292 1.0 3.0 0.00 0.00 0.00 8 1009.9
20260508082714 61 315 1.0 2.0 0.00 0.00 0.00 8 1009.7
20260508082459 62 0 0.0 0.0 0.00 0.00 0.00 8 1009.6
20260508082357 61 0 0.0 0.0 0.00 0.00 0.00 8 1009.6
20260508081931 61 0 0.0 1.0 0.00 0.00 0.00 8 1009.7
20260508081517 61 315 0.0 2.0 0.00 0.00 0.00 8 1009.6
20260508081111 61 0 0.0 0.0 0.00 0.00 0.00 8 1009.4
20260508080645 60 270 0.0 1.0 0.00 0.00 0.00 8 1009.5
20260508080152 60 292 2.0 3.0 0.00 0.00 0.00 8 1009.5
20260508075657 59 292 2.0 3.0 0.00 0.00 0.00 8 1009.5
20260508075452 59 270 3.0 4.0 0.00 0.00 0.00 8 1009.6
20260508075007 59 292 3.0 3.0 0.00 0.00 0.00 9 1009.4
20260508074517 59 270 3.0 4.0 0.00 0.00 0.00 9 1009.4
20260508074457 59 292 2.0 3.0 0.00 0.00 0.00 9 1009.3
20260508074047 59 270 3.0 3.0 0.00 0.00 0.00 9 1009.4
20260508073544 58 292 3.0 3.0 0.00 0.00 0.00 9 1009.2
20260508073132 58 292 2.0 3.0 0.00 0.00 0.00 9 1009.5
20260508072725 58 270 2.0 2.0 0.00 0.00 0.00 9 1009.4
20260508072722 58 270 2.0 2.0 0.00 0.00 0.00 9 1009.4
20260508072448 58 292 2.0 2.0 0.00 0.00 0.00 9 1009.5
20260508072013 57 270 2.0 3.0 0.00 0.00 0.00 9 1009.4
20260508071528 57 270 3.0 3.0 0.00 0.00 0.00 9 1009.5
20260508071106 57 292 3.0 3.0 0.00 0.00 0.00 9 1009.4
20260508070618 57 315 3.0 4.0 0.00 0.00 0.00 9 1009.3
20260508070150 57 292 3.0 4.0 0.00 0.00 0.00 9 1009.4
20260508065701 57 270 3.0 6.0 0.00 0.00 0.00 9 1009.4
20260508065658 57 270 3.0 6.0 0.00 0.00 0.00 9 1009.4
20260508065519 57 270 3.0 6.0 0.00 0.00 0.00 9 1009.4
20260508065117 56 270 3.0 3.0 0.00 0.00 0.00 9 1009.4
20260508064622 56 292 2.0 2.0 0.00 0.00 0.00 9 1009.2
20260508064557 56 292 2.0 2.0 0.00 0.00 0.00 9 1009.2
20260508064129 57 315 0.0 1.0 0.00 0.00 0.00 9 1009.3
20260508063704 56 292 1.0 2.0 0.00 0.00 0.00 9 1009.2
20260508063659 56 270 2.0 3.0 0.00 0.00 0.00 9 1009.2
20260508063209 56 292 3.0 4.0 0.00 0.00 0.00 9 1009.3
20260508062718 55 292 5.0 6.0 0.00 0.00 0.00 9 1009.2
20260508062714 55 292 5.0 6.0 0.00 0.00 0.00 9 1009.2
20260508062305 55 292 3.0 4.0 0.00 0.00 0.00 9 1009.0
20260508061830 55 292 3.0 3.0 0.00 0.00 0.00 9 1008.8
20260508061427 55 292 4.0 6.0 0.00 0.00 0.00 9 1008.9
20260508061355 56 315 3.0 4.0 0.00 0.00 0.00 9 1008.9
20260508061022 55 292 4.0 6.0 0.00 0.00 0.00 9 1008.9
20260508060607 55 337 2.0 3.0 0.00 0.00 0.00 9 1009.1
20260508060112 55 292 2.0 2.0 0.00 0.00 0.00 9 1009.3
20260508055700 55 292 3.0 4.0 0.00 0.00 0.00 9 1009.1
20260508055657 55 292 3.0 4.0 0.00 0.00 0.00 9 1009.1
20260508055411 55 292 3.0 4.0 0.00 0.00 0.00 9 1009.2
20260508054952 55 315 2.0 3.0 0.00 0.00 0.00 9 1009.1
20260508054705 54 270 3.0 4.0 0.00 0.00 0.00 9 1009.1
20260508054532 54 270 3.0 4.0 0.00 0.00 0.00 9 1009.2
20260508054048 55 292 2.0 2.0 0.00 0.00 0.00 9 1008.9
20260508053707 54 292 2.0 3.0 0.00 0.00 0.00 9 1008.8
20260508053632 54 292 2.0 2.0 0.00 0.00 0.00 9 1008.7
20260508053207 54 292 2.0 3.0 0.00 0.00 0.00 9 1008.6
20260508052716 54 292 2.0 3.0 0.00 0.00 0.00 9 1008.5
20260508052712 54 292 2.0 3.0 0.00 0.00 0.00 9 1008.5
20260508052409 54 292 2.0 3.0 0.00 0.00 0.00 9 1008.5
20260508051914 54 292 2.0 3.0 0.00 0.00 0.00 9 1008.3
20260508051653 54 292 2.0 2.0 0.00 0.00 0.00 9 1008.4
20260508051442 54 270 2.0 3.0 0.00 0.00 0.00 9 1008.4
20260508051039 54 270 2.0 3.0 0.00 0.00 0.00 9 1008.4
20260508050653 54 270 1.0 2.0 0.00 0.00 0.00 9 1008.3
20260508050619 54 270 1.0 2.0 0.00 0.00 0.00 9 1008.3
20260508050154 53 292 1.0 2.0 0.00 0.00 0.00 9 1008.2
20260508045659 53 292 3.0 3.0 0.00 0.00 0.00 9 1008.1
20260508045342 53 292 3.0 3.0 0.00 0.00 0.00 9 1008.2
20260508044847 53 292 3.0 3.0 0.00 0.00 0.00 9 1008.2
20260508044405 53 292 2.0 2.0 0.00 0.00 0.00 9 1008.2
20260508044002 53 292 2.0 3.0 0.00 0.00 0.00 9 1008.1
20260508043538 53 292 2.0 3.0 0.00 0.00 0.00 9 1008.2
20260508043130 53 292 3.0 4.0 0.00 0.00 0.00 9 1008.1
20260508042727 53 292 2.0 2.0 0.00 0.00 0.00 9 1008.0
20260508042426 53 270 2.0 3.0 0.00 0.00 0.00 9 1008.0
20260508042252 53 270 3.0 3.0 0.00 0.00 0.00 9 1007.9
20260508042001 53 270 3.0 3.0 0.00 0.00 0.00 9 1007.9
20260508041516 53 270 1.0 2.0 0.00 0.00 0.00 9 1007.9
20260508041056 53 292 1.0 2.0 0.00 0.00 0.00 9 1007.9
20260508040556 52 292 2.0 3.0 0.00 0.00 0.00 9 1008.0
20260508040106 53 270 2.0 2.0 0.00 0.00 0.00 9 1008.0
20260508035651 53 247 3.0 3.0 0.00 0.00 0.00 9 1008.0
20260508035451 53 292 3.0 4.0 0.00 0.00 0.00 9 1008.1
20260508035017 53 292 2.0 3.0 0.00 0.00 0.00 9 1008.0